Home > Time Zones > World Clock > Weather > Italy > Milan > Past weeks

Flag for Italy Weather past 2 weeks in Milan, Italy

Now
77 °F

Scattered clouds.


Feels Like: 78 °F
Forecast: 57 / 72 °F
Wind: 9 mph from Southwest

Location: Milan / Linate

Current Time: May 25, 2015 at 6:43:08 PM

Latest Report: May 25, 2015 at 5:50 PM


Visibility: N/A

Pressure: 29.80 "Hg

Humidity: 39%

Dew point: 50 °F

Location of MilanLocation

Historic Weather in Milan — Graph

°F

Milan temperature yesterday

Maximum temperature yesterday: 73 °F (at 5:20 PM)
Minimum temperature yesterday: 50 °F (at 5:20 AM)
Average temperature yesterday: 64 °F

Past Weeks' High & Low Weather Summary

 TemperatureHumidityPressure
High84 °F (May 14, 3:50 PM)100% (May 15, 10:20 PM)30.30 "Hg (May 15, 10:20 PM)
Low50 °F (May 21, 5:50 AM)28% (May 10, 5:50 PM)29.56 "Hg (May 15, 12:20 PM)
Average67 °F67%29.95 "Hg
* Reported May 10 5:20 PM — May 25 5:20 PM, Milan, Weather by CustomWeather, © 2015

Note: Actual official high and low records may vary slightly from our data, if they occured in-between our weather recording intervals... More about our weather records

Advertising

Milan weather history for previous 24 hours

 ConditionsComfort  
Time TempWeatherWind HumidityBarometerVisibility
5:20 PM
Mon, May 25
77 °FScattered clouds.8 mph39%29.80 "HgN/A
4:50 PM79 °FPassing clouds.9 mph37%29.80 "HgN/A
4:20 PM77 °FPassing clouds.5 mph39%29.80 "HgN/A
3:50 PM75 °FPassing clouds.6 mph41%29.83 "HgN/A
3:20 PM75 °FPassing clouds.8 mph41%29.83 "HgN/A
2:50 PM75 °FScattered clouds.9 mph44%29.83 "HgN/A
2:20 PM75 °FScattered clouds.10 mph41%29.83 "HgN/A
1:50 PM75 °FPassing clouds.9 mph41%29.86 "HgN/A
1:20 PM75 °FPassing clouds.10 mph39%29.86 "HgN/A
12:50 PM75 °FPassing clouds.8 mph41%29.86 "HgN/A
12:20 PM75 °FPassing clouds.7 mph41%29.89 "HgN/A
11:50 AM73 °FPassing clouds.5 mph44%29.89 "HgN/A
11:20 AM73 °FPassing clouds.5 mph47%29.89 "HgN/A
10:50 AM73 °FSunny.2 mph50%29.89 "Hg10 mi
10:20 AM70 °FSunny.2 mph57%29.89 "Hg10 mi
9:50 AM68 °FPassing clouds.3 mph60%29.92 "HgN/A
9:20 AM68 °FSunny.3 mph60%29.92 "Hg10 mi
8:50 AM66 °FPassing clouds.5 mph64%29.92 "HgN/A
8:20 AM64 °FSunny.2 mph73%29.92 "Hg10 mi
7:50 AM63 °FSunny.2 mph73%29.92 "Hg10 mi
7:20 AM59 °FPassing clouds.2 mph82%29.92 "HgN/A
6:50 AM59 °FPassing clouds.2 mph82%29.92 "HgN/A
6:20 AM57 °FPassing clouds.2 mph82%29.92 "HgN/A
5:50 AM55 °FPassing clouds.2 mph88%29.92 "HgN/A
5:20 AM57 °FClear.3 mph82%29.92 "Hg10 mi
4:50 AM55 °FPassing clouds.1 mph94%29.92 "HgN/A
4:20 AM57 °FPassing clouds.2 mph82%29.92 "HgN/A
3:50 AM59 °FPassing clouds.2 mph82%29.95 "HgN/A
3:20 AM59 °FPassing clouds.3 mph82%29.95 "HgN/A
2:50 AM61 °FPassing clouds.3 mph77%29.95 "HgN/A
2:20 AM61 °FPassing clouds.3 mph77%29.95 "HgN/A
1:50 AM61 °FPassing clouds.2 mph77%29.95 "HgN/A
1:20 AM61 °FClear.2 mph77%29.95 "Hg10 mi
12:50 AM63 °FClear.1 mph73%29.95 "Hg10 mi
12:20 AM63 °FClear.1 mph68%29.95 "Hg10 mi
11:50 PM
Sun, May 24
61 °FClear.No wind72%29.95 "Hg10 mi
11:20 PM63 °FClear.No wind68%29.95 "Hg10 mi
10:50 PM63 °FClear.2 mph64%29.95 "Hg10 mi
10:20 PM63 °FClear.2 mph68%29.95 "Hg10 mi
9:50 PM64 °FSunny.2 mph64%29.95 "Hg10 mi
9:20 PM66 °FSunny.3 mph56%29.92 "Hg10 mi
8:50 PM68 °FSunny.5 mph53%29.92 "Hg10 mi
7:50 PM70 °FPassing clouds.7 mph50%29.92 "HgN/A
7:20 PM72 °FPassing clouds.7 mph47%29.92 "HgN/A
6:50 PM72 °FScattered clouds.5 mph47%29.92 "HgN/A
6:20 PM72 °FScattered clouds.7 mph44%29.92 "HgN/A
Weather by CustomWeather, © 2015

See weather overviewHow to use our weather pages